Latest Weather Observations for Longerenong

IDV60801

Issued at 7:35 pm EST Friday 19 September 2014 (issued every 30 minutes, with the page automatically refreshed every 10 minutes)

About weather observations | Map of weather stations | Latest weather observations for VIC | Other Formats
Station Details ID: 079028 Name: LONGERENONG Lat: -36.67 Lon: 142.30 Height: 133.0 m
Data from the previous 72 hours. | See also: Recent months at Longerenong
Date/Time
EST
Temp
°C
App
Temp
°C
Dew
Point
Rel
Hum
%
Delta-T
°C
Wind Press
QNH
hPa
Press
MSL
hPa
Rain
since 9 am
mm
Dir
 
Spd
km/h
Gust
km/h
Spd
kts
Gust
kts
19/07:30pm 8.6 5.6 2.0 63 2.8 SSW 7 9 4 5 - - 0.0
19/07:00pm 10.4 6.7 2.3 57 3.5 SSW 11 13 6 7 - - 0.0
19/06:30pm 12.1 8.4 2.3 51 4.3 SW 11 17 6 9 - - 0.0
19/06:00pm 13.9 10.2 2.5 46 5.1 SSW 11 19 6 10 - - 0.0
19/05:30pm 15.3 11.2 2.1 41 5.9 SW 13 19 7 10 - - 0.0
19/05:00pm 15.5 11.4 2.0 40 6.0 SSW 13 19 7 10 - - 0.0
19/04:30pm 16.9 13.2 2.1 37 6.7 S 11 26 6 14 - - 0.0
19/04:00pm 16.6 12.7 1.1 35 6.8 SW 11 24 6 13 - - 0.0
19/03:30pm 17.0 13.5 1.4 35 7.0 WSW 9 17 5 9 - - 0.0
19/03:00pm 16.3 11.1 2.3 39 6.3 SW 19 26 10 14 - - 0.0
19/02:30pm 16.8 13.6 2.8 39 6.4 S 9 17 5 9 - - 0.0
19/02:00pm 16.1 12.0 2.2 39 6.3 SSW 13 19 7 10 - - 0.0
19/01:30pm 15.7 12.7 1.8 39 6.2 SSW 7 17 4 9 - - 0.0
19/01:00pm 15.8 11.6 1.9 39 6.2 S 13 24 7 13 - - 0.0
19/12:30pm 15.3 11.9 2.1 41 5.9 W 9 19 5 10 - - 0.0
19/12:00pm 14.7 11.8 2.6 44 5.4 SE 7 13 4 7 - - 0.0
19/11:30am 14.0 11.2 2.9 47 5.0 SW 7 13 4 7 - - 0.0
19/11:00am 12.9 9.6 2.5 49 4.6 S 9 15 5 8 - - 0.0
19/10:30am 13.1 10.5 4.0 54 4.2 SW 7 15 4 8 - - 0.0
19/10:00am 12.1 9.7 4.3 59 3.6 S 6 11 3 6 - - 0.0
19/09:30am 10.7 8.3 4.4 65 2.8 SSW 6 7 3 4 - - 0.0
19/09:00am 9.0 6.7 4.6 74 2.0 SW 6 9 3 5 - - 0.0
19/08:30am 6.5 4.2 5.0 90 0.7 SW 6 7 3 4 - - 0.0
19/08:00am 3.5 1.3 3.1 97 0.2 SW 4 6 2 3 - - 0.0
19/07:30am -0.8 -3.0 -1.4 96 0.2 CALM 0 0 0 0 - - 0.0
19/07:00am -2.7 -5.1 -3.4 95 0.1 CALM 0 0 0 0 - - 0.0
19/06:30am -2.1 -4.5 -2.9 94 0.2 CALM 0 0 0 0 - - 0.0
19/06:00am -3.1 -5.6 -3.8 95 0.1 CALM 0 0 0 0 - - 0.0
19/05:30am -1.6 -3.9 -2.2 96 0.1 CALM 0 0 0 0 - - 0.0
19/05:00am -0.3 -3.6 -0.9 96 0.2 SW 6 7 3 4 - - 0.0
19/04:30am -2.0 -5.1 -2.7 95 0.1 SW 4 6 2 3 - - 0.0
19/04:00am -1.8 -5.2 -2.4 96 0.1 SW 6 6 3 3 - - 0.0
19/03:30am -1.1 -4.5 -1.7 96 0.2 SW 6 7 3 4 - - 0.0
19/03:00am -0.8 -4.1 -1.4 96 0.2 SW 6 6 3 3 - - 0.0
19/02:30am 1.2 -1.8 0.6 96 0.2 SSW 6 7 3 4 - - 0.0
19/02:00am -1.0 -4.0 -1.7 95 0.2 SSW 4 6 2 3 - - 0.0
19/01:30am -1.5 -4.6 -2.3 94 0.2 SSW 4 6 2 3 - - 0.0
19/01:00am 1.2 -1.5 0.5 95 0.3 S 4 6 2 3 - - 0.0
19/12:30am 2.9 1.3 2.3 96 0.2 CALM 0 2 0 1 - - 0.0
19/12:00am 1.7 -1.3 1.1 96 0.2 SSW 6 7 3 4 - - 0.0
 
Date/Time
EST
Temp
°C
App
Temp
°C
Dew
Point
Rel
Hum
%
Delta-T
°C
Wind Press
QNH
hPa
Press
MSL
hPa
Rain
since 9 am
mm
Dir
 
Spd
km/h
Gust
km/h
Spd
kts
Gust
kts
18/11:30pm 2.3 0.6 1.6 95 0.3 CALM 0 0 0 0 - - 0.0
18/11:00pm 2.4 0.7 1.7 95 0.3 CALM 0 2 0 1 - - 0.0
18/10:30pm 3.0 0.2 1.8 92 0.5 SSE 6 6 3 3 - - 0.0
18/10:00pm 2.9 -0.1 0.8 86 0.8 SSE 6 7 3 4 - - 0.0
18/09:30pm 5.0 2.9 3.7 91 0.5 SSE 4 6 2 3 - - 0.0
18/09:00pm 5.5 3.7 3.5 87 0.8 SSE 2 4 1 2 - - 0.0
18/08:30pm 5.4 2.6 3.4 87 0.8 S 7 9 4 5 - - 0.0
18/08:00pm 6.7 4.2 4.0 83 1.2 S 6 7 3 4 - - 0.0
18/07:30pm 7.7 5.2 4.5 80 1.4 S 7 11 4 6 - - 0.0
18/07:00pm 8.8 6.0 5.0 77 1.7 SSW 9 11 5 6 - - 0.0
18/06:30pm 9.5 6.2 4.5 71 2.2 SSW 11 15 6 8 - - 0.0
18/06:00pm 10.9 8.0 4.4 64 2.9 SSW 9 11 5 6 - - 0.0
18/05:30pm 12.7 8.3 4.9 59 3.6 SSW 17 20 9 11 - - 0.0
18/05:00pm 13.8 8.8 4.7 54 4.2 S 20 26 11 14 - - 0.0
18/04:30pm 12.9 9.2 4.3 56 3.9 SW 13 20 7 11 - - 0.0
18/04:00pm 15.0 10.7 5.2 52 4.7 SW 17 28 9 15 - - 0.0
18/03:30pm 13.9 8.8 4.2 52 4.5 SSW 20 28 11 15 - - 0.0
18/03:00pm 14.7 11.0 4.4 50 4.8 SW 13 20 7 11 - - 0.0
18/02:30pm 14.0 9.8 3.8 50 4.7 SW 15 22 8 12 - - 0.0
18/02:00pm 14.0 9.9 4.3 52 4.5 SW 15 20 8 11 - - 0.0
18/01:30pm 13.8 10.9 4.7 54 4.2 SSW 9 17 5 9 - - 0.0
18/01:00pm 13.1 9.1 4.8 57 3.9 SW 15 20 8 11 - - 0.0
18/12:30pm 12.9 8.4 4.1 55 4.0 SW 17 22 9 12 - - 0.0
18/12:00pm 12.3 9.0 4.3 58 3.6 WSW 11 19 6 10 - - 0.0
18/11:30am 12.2 8.9 4.4 59 3.6 SSW 11 20 6 11 - - 0.0
18/11:00am 11.5 7.4 4.3 61 3.3 SSW 15 22 8 12 - - 0.0
18/10:30am 12.0 7.5 4.2 59 3.5 SSW 17 26 9 14 - - 0.0
18/10:00am 12.0 7.2 4.5 60 3.4 SSW 19 26 10 14 - - 0.0
18/09:30am 11.0 6.6 4.5 64 2.9 SSW 17 26 9 14 - - 0.0
18/09:00am 9.8 6.4 4.2 68 2.5 SW 11 15 6 8 - - 0.2
18/08:30am 8.7 5.7 3.9 72 2.1 SW 9 15 5 8 - - 0.2
18/08:00am 7.4 4.3 3.6 77 1.6 SW 9 13 5 7 - - 0.2
18/07:30am 5.3 2.8 3.5 88 0.8 WSW 6 7 3 4 - - 0.2
18/07:00am 3.7 0.8 2.5 92 0.5 WSW 7 11 4 6 - - 0.2
18/06:30am 2.2 -1.0 0.9 91 0.5 SW 7 9 4 5 - - 0.2
18/06:00am 2.0 -0.2 1.1 94 0.3 SW 2 4 1 2 - - 0.2
18/05:30am 0.6 -2.6 -0.7 91 0.5 WSW 6 7 3 4 - - 0.2
18/05:00am 1.3 -1.4 0.1 92 0.4 WSW 4 6 2 3 - - 0.2
18/04:30am 1.1 -2.1 -0.4 90 0.5 W 6 7 3 4 - - 0.2
18/04:00am 1.8 -0.9 0.6 92 0.5 E 4 7 2 4 - - 0.2
18/03:30am 2.9 1.2 1.7 92 0.5 CALM 0 0 0 0 - - 0.2
18/03:00am 2.8 1.0 1.3 90 0.6 CALM 0 0 0 0 - - 0.2
18/02:30am 3.0 1.2 1.1 87 0.7 CALM 0 2 0 1 - - 0.2
18/02:00am 4.1 1.0 1.5 83 1.0 S 7 11 4 6 - - 0.2
18/01:30am 4.9 1.2 2.6 85 0.9 W 11 15 6 8 - - 0.2
18/01:00am 5.3 1.6 2.5 82 1.1 W 11 15 6 8 - - 0.2
18/12:30am 4.8 1.1 2.5 85 0.9 W 11 13 6 7 - - 0.2
18/12:00am 5.4 2.1 2.2 80 1.3 WSW 9 11 5 6 - - 0.2
 
Date/Time
EST
Temp
°C
App
Temp
°C
Dew
Point
Rel
Hum
%
Delta-T
°C
Wind Press
QNH
hPa
Press
MSL
hPa
Rain
since 9 am
mm
Dir
 
Spd
km/h
Gust
km/h
Spd
kts
Gust
kts
17/11:30pm 6.8 3.1 2.5 74 1.8 WSW 11 19 6 10 - - 0.2
17/11:00pm 6.9 2.8 2.4 73 1.9 SW 13 17 7 9 - - 0.2
17/10:30pm 6.8 3.6 2.9 76 1.6 WSW 9 13 5 7 - - 0.2
17/10:00pm 6.0 2.3 2.6 79 1.4 WSW 11 15 6 8 - - 0.2
17/09:30pm 6.9 3.6 2.4 73 1.9 SW 9 11 5 6 - - 0.2
17/09:00pm 6.9 3.2 2.2 72 1.9 SW 11 13 6 7 - - 0.2
17/08:30pm 7.7 3.7 2.6 70 2.1 SW 13 19 7 10 - - 0.2
17/08:00pm 8.6 3.9 3.4 70 2.2 SW 17 24 9 13 - - 0.2
17/07:30pm 8.6 4.8 4.0 73 2.0 SSW 13 19 7 10 - - 0.2
17/07:00pm 9.3 5.2 4.3 71 2.2 SSW 15 20 8 11 - - 0.2
17/06:30pm 9.9 5.8 4.5 69 2.4 SW 15 20 8 11 - - 0.2
17/06:00pm 11.1 5.3 4.3 63 3.1 SW 24 33 13 18 - - 0.2
17/05:30pm 13.0 6.8 4.4 56 4.0 SW 26 37 14 20 - - 0.2
17/05:00pm 13.1 6.7 3.2 51 4.4 SW 26 35 14 19 - - 0.2
17/04:30pm 14.4 7.6 2.9 46 5.2 WSW 28 44 15 24 - - 0.2
17/04:00pm 15.5 8.8 1.3 38 6.2 SW 26 35 14 19 - - 0.2
17/03:30pm 15.1 8.9 2.0 41 5.8 SW 24 35 13 19 - - 0.2
17/03:00pm 14.4 6.4 0.3 38 6.0 WSW 32 46 17 25 - - 0.2
17/02:30pm 15.4 9.1 1.5 39 6.1 SW 24 35 13 19 - - 0.2
17/02:00pm 15.5 7.9 0.5 36 6.5 SW 30 43 16 23 - - 0.2
17/01:35pm 15.6 8.0 0.6 36 6.5 SW 30 50 16 27 - - 0.0
17/01:30pm 15.3 7.5 1.8 40 6.0 SW 32 50 17 27 - - 0.0
17/01:00pm 13.9 6.9 3.9 51 4.6 SW 30 41 16 22 - - 0.0
17/12:30pm 14.4 6.5 1.3 41 5.7 SW 32 43 17 23 - - 0.0
17/12:00pm 13.4 5.8 0.8 42 5.4 SW 30 43 16 23 - - 0.0
17/11:30am 13.9 5.9 -2.1 33 6.4 WSW 30 46 16 25 - - 0.0
17/11:00am 13.6 5.4 2.5 47 4.9 SW 35 48 19 26 - - 0.0
17/10:30am 12.3 6.2 3.0 53 4.1 WSW 24 35 13 19 - - 0.0
17/10:00am 12.8 7.8 6.4 65 3.1 SW 22 30 12 16 - - 0.0
17/09:30am 11.8 7.6 7.3 74 2.2 SW 19 30 10 16 - - 0.0
17/09:00am 9.4 7.5 7.5 88 0.9 WSW 7 13 4 7 - - 0.0
17/08:30am 7.8 5.4 7.2 96 0.3 W 9 13 5 7 - - 0.0
17/08:00am 6.2 4.5 5.8 97 0.2 W 4 6 2 3 - - 0.0
17/07:30am 4.6 2.9 4.2 97 0.2 W 2 4 1 2 - - 0.0
17/07:00am 3.3 1.0 2.9 97 0.2 W 4 6 2 3 - - 0.0
17/06:30am 2.7 1.0 2.1 96 0.2 CALM 0 2 0 1 - - 0.0
17/06:00am 3.8 1.0 3.2 96 0.2 WNW 7 9 4 5 - - 0.0
17/05:30am 4.5 1.8 3.9 96 0.3 WNW 7 11 4 6 - - 0.0
17/05:00am 5.3 2.0 4.7 96 0.3 WNW 11 15 6 8 - - 0.0
17/04:30am 5.3 2.4 4.7 96 0.3 WNW 9 11 5 6 - - 0.0
17/04:00am 5.5 2.6 4.6 94 0.4 W 9 11 5 6 - - 0.0
17/03:30am 6.9 4.3 6.0 94 0.4 W 9 13 5 7 - - 0.0
17/03:00am 8.5 5.8 7.4 93 0.5 W 11 19 6 10 - - 0.0
17/02:30am 8.7 6.3 7.0 89 0.8 W 9 15 5 8 - - 0.0
17/02:00am 9.3 5.7 6.9 85 1.1 W 15 22 8 12 - - 0.0
17/01:30am 9.6 5.7 6.9 83 1.3 W 17 26 9 14 - - 0.0
17/01:00am 9.5 6.2 6.6 82 1.4 W 13 19 7 10 - - 0.0
17/12:30am 9.3 6.8 6.6 83 1.3 W 9 13 5 7 - - 0.0
17/12:00am 9.3 6.4 6.6 83 1.3 W 11 13 6 7 - - 0.0
 
Date/Time
EST
Temp
°C
App
Temp
°C
Dew
Point
Rel
Hum
%
Delta-T
°C
Wind Press
QNH
hPa
Press
MSL
hPa
Rain
since 9 am
mm
Dir
 
Spd
km/h
Gust
km/h
Spd
kts
Gust
kts
16/11:30pm 9.0 5.9 5.7 80 1.5 W 11 13 6 7 - - 0.0
16/11:00pm 9.6 6.5 5.6 76 1.8 W 11 17 6 9 - - 0.0
16/10:30pm 8.4 5.1 4.8 78 1.6 WNW 11 15 6 8 - - 0.0
16/10:00pm 9.2 6.0 5.0 75 1.9 W 11 15 6 8 - - 0.0
16/09:30pm 8.7 5.8 4.9 77 1.7 W 9 13 5 7 - - 0.0
16/09:00pm 7.4 3.8 0.6 62 2.7 W 9 11 5 6 - - 0.0
16/08:30pm 9.8 7.4 5.4 74 2.0 WSW 7 9 4 5 - - 0.0
16/08:00pm 11.8 8.9 4.8 62 3.2 WSW 9 13 5 7 - - 0.0

Other Formats:

Comma delimited format used in spreadsheet applications
http://www.bom.gov.au/fwo/IDV60801/IDV60801.95835.axf

JavaScript Object Notation format (JSON) in row-major order
http://www.bom.gov.au/fwo/IDV60801/IDV60801.95835.json